Tracking 31027 objects as of 19-Jul-2025
HD Live streaming from Space Station
objects crossing your sky now

STARLINK-31307

Track STARLINK-31307 now!
10-day predictions
STARLINK-31307 is classified as:


NORAD ID: 59089
Int'l Code: 2024-041R
Perigee: 489.4 km
Apogee: 491.0 km
Inclination: 43.0 °
Period: 94.3 minutes
Semi major axis: 6861 km
RCS: Unknown
Launch date: February 29, 2024
Source: United States (US)
Launch site: AIR FORCE EASTERN TEST RANGE (AFETR)
Your satellite tracking list
Your tracking list is empty




NASA's NSSDC Master Catalog

Two Line Element Set (TLE):
1 59089U 24041R   25199.34505309  .00000570  00000-0  30233-4 0  9994
2 59089  43.0003 193.9775 0001161 273.3480  86.7239 15.27581628 78487
Source of the keplerian elements: AFSPC